User: anonymous   Login
Location: Unspecified
(0.0000°N, 0.0000°E)
Time: 10:28:40
(UTC+00:00)
Language:

DSCS II F-15 - Orbit

View from above orbital plane
View from above orbital plane
View from above satellite
View from above satellite

Ground track
Ground track

The orbit data is extracted from the following two-line orbital elements,

1 20202U 89069A   20047.05831205 -.00000196 +00000-0 +00000-0 0  9992
2 20202 015.0236 354.2331 0011979 223.9404 313.0468 00.98612181002998
Epoch (UTC): 16 February 2020 01:23:58
Eccentricity: 0.0011979
inclination: 15.0236°
perigee height: 36207 km
apogee height: 36309 km
right ascension of ascending node: 354.2331°
argument of perigee: 223.9404°
revolutions per day: 0.98612181
mean anomaly at epoch: 313.0468°
orbit number at epoch: 299

The dashed part of the orbit path shows where the satellite is in the earth's shadow,  

DLR